{"data":{"norad_id":28372,"intl_designator":"2004-025G","name":"APRIZESAT 1","alt_names":[],"object_type":"PAYLOAD","status":"ACTIVE","operator":null,"country":"US","launch_date":"2004-06-29","launch_site_code":"TYMSC","launch_vehicle":null,"mission":null,"orbit_class":"UNKNOWN","rcs_meters":0.0575,"size_class":null,"mass_kg":null,"dimensions":null,"purposes":[],"wikipedia_slug":null,"has_3d_model":false,"image_url":null,"decayed_at":null,"tle_current":{"epoch":"2026-09-19T07:14:17.179008Z","epoch_age_seconds":117889,"freshness":"FRESH","line1":"1 28372U 04025G   26262.30158772  .00000120  00000+0  41601-4 0  9992","line2":"2 28372  98.6322 275.6000 0043656 228.1351 131.6114 14.51819093175562","mean_motion":14.51819093,"eccentricity":0.0043656,"inclination_deg":98.6322,"raan_deg":275.6,"arg_perigee_deg":228.1351,"mean_anomaly_deg":131.6114,"bstar":4.1601e-5,"rev_number":17556,"period_min":99.185911450195,"perigee_km":688.72698179225,"apogee_km":750.69973283202,"semimajor_km":7097.8503573121,"source":"CELESTRAK","updated_at":"2026-09-20T09:00:13.597982Z"}}}